Simultaneous Nadir Overpasses (SNOs) Predictions

Prediction of SNOs between NPP and TERRA Satellite Orbit:

Table of predicted SNOs for the next 14.0 days since TLE Epoch: 8/11/2012
Index Date (NPP) Time (NPP) Lat,Lon (NPP) SZA (NPP ) Date (TERRA) Time (TERRA) Lat,Lon (TERRA) SZA (TERRA ) Distance(km) Time Diff (sec)
1 08/11/2012 11:28:12 -68.67,-174.24 126.46 08/11/2012 11:29:23 -68.56,-173.50 126.61 32.81 71
2 08/11/2012 12:18:49 68.16, -6.27 53.02 08/11/2012 12:18:55 68.17, -6.32 53.03 2.18 6
3 08/11/2012 13:09:30 -68.04, 161.21 127.10 08/11/2012 13:08:25 -68.06, 161.19 127.07 3.08 65
4 08/14/2012 03:44:59 -68.32, -58.01 126.02 08/14/2012 03:45:59 -68.31, -57.94 126.04 3.09 60
5 08/14/2012 04:35:42 68.13, 109.54 53.80 08/14/2012 04:35:27 68.14, 109.51 53.81 1.85 15
6 08/14/2012 05:26:15 -67.57, -82.45 126.76 08/14/2012 05:25:04 -67.65, -83.43 126.66 42.20 71
7 08/16/2012 20:01:52 -68.24, 57.86 125.26 08/16/2012 20:02:36 -68.23, 57.82 125.28 2.36 44
8 08/16/2012 20:52:36 68.11,-134.66 54.62 08/16/2012 20:52:03 68.12,-134.67 54.63 0.95 33
9 08/19/2012 11:28:23 69.33, 4.85 56.72 08/19/2012 11:29:29 69.19, 7.22 56.53 94.53 66
10 08/19/2012 12:18:46 -68.23, 173.64 124.40 08/19/2012 12:19:15 -68.21, 173.63 124.43 2.55 29
11 08/19/2012 13:09:30 68.10, -18.88 55.48 08/19/2012 13:08:42 68.10, -18.85 55.48 1.21 48
12 08/22/2012 03:45:09 68.90, 121.21 57.17 08/22/2012 03:46:18 68.78, 122.53 57.02 54.42 69
13 08/22/2012 04:35:39 -68.18, -70.52 123.57 08/22/2012 04:35:57 -68.20, -70.56 123.55 2.27 18
14 08/22/2012 05:26:23 68.05, 96.95 56.32 08/22/2012 05:25:24 68.08, 96.95 56.35 3.58 59
15 08/24/2012 20:01:56 68.60,-122.61 57.76 08/24/2012 20:03:07 68.49,-122.02 57.64 26.54 71
16 08/24/2012 20:52:32 -68.20, 45.23 122.64 08/24/2012 20:52:41 -68.19, 45.24 122.65 1.08 9
17 08/24/2012 21:43:16 68.07,-147.30 57.24 08/24/2012 21:42:08 68.07,-147.25 57.25 2.20 68




NCC Satellite Simultaneous Nadir Overpasses (SNOs) Prediction Service
